Hourly Weather Rusinovcy

Today, 11 April, Sunday

Time Temperature Precipitation Wind Pressure Humidity
00:00 +9°C° 0.2 mm 2 mps 753 mmHg 82%
01:00 +8°C° 0.2 mm 2 mps 753 mmHg 82%
02:00 +8°C° 0.2 mm 2 mps 753 mmHg 83%
03:00 +8°C° 0 mm 2 mps 754 mmHg 83%
04:00 +8°C° 0 mm 2 mps 754 mmHg 82%
05:00 +8°C° 0 mm 2 mps 754 mmHg 82%
06:00 +9°C° 0 mm 2 mps 754 mmHg 80%
07:00 +9°C° 0 mm 2 mps 755 mmHg 78%
08:00 +9°C° 0 mm 2 mps 755 mmHg 76%
09:00 +11°C° 0 mm 3 mps 755 mmHg 71%
10:00 +12°C° 0 mm 4 mps 755 mmHg 65%
11:00 +14°C° 0 mm 4 mps 755 mmHg 59%
12:00 +15°C° 0 mm 5 mps 755 mmHg 54%
13:00 +16°C° 0 mm 6 mps 755 mmHg 49%
14:00 +17°C° 0 mm 6 mps 755 mmHg 44%
15:00 +16°C° 0 mm 6 mps 755 mmHg 46%
16:00 +16°C° 0 mm 6 mps 755 mmHg 47%
17:00 +16°C° 0 mm 6 mps 755 mmHg 48%
18:00 +14°C° 0 mm 6 mps 755 mmHg 51%
19:00 +13°C° 0 mm 5 mps 755 mmHg 54%
20:00 +12°C° 0 mm 5 mps 756 mmHg 57%
21:00 +10°C° 0 mm 5 mps 756 mmHg 57%
22:00 +10°C° 0 mm 5 mps 756 mmHg 57%
23:00 +9°C° 0 mm 6 mps 756 mmHg 57%

Tomorrow, 12 April, Monday

Time Temperature Precipitation Wind Pressure Humidity
00:00 +9°C° 0 mm 6 mps 756 mmHg 57%
01:00 +8°C° 0 mm 5 mps 756 mmHg 58%
02:00 +8°C° 0 mm 5 mps 756 mmHg 58%
03:00 +8°C° 0 mm 5 mps 755 mmHg 59%
04:00 +7°C° 0 mm 5 mps 755 mmHg 59%
05:00 +7°C° 0 mm 6 mps 755 mmHg 60%
06:00 +7°C° 0 mm 6 mps 755 mmHg 59%
07:00 +7°C° 0 mm 6 mps 755 mmHg 59%
08:00 +8°C° 0 mm 6 mps 755 mmHg 58%
09:00 +9°C° 0 mm 6 mps 755 mmHg 55%
10:00 +10°C° 0 mm 7 mps 755 mmHg 51%
11:00 +12°C° 0 mm 7 mps 755 mmHg 48%
12:00 +13°C° 0 mm 6 mps 754 mmHg 49%
13:00 +13°C° 0 mm 6 mps 754 mmHg 51%
14:00 +14°C° 0 mm 6 mps 754 mmHg 53%
15:00 +13°C° 0 mm 5 mps 754 mmHg 55%
16:00 +13°C° 0 mm 4 mps 753 mmHg 58%
17:00 +12°C° 0 mm 4 mps 753 mmHg 61%
18:00 +11°C° 0.1 mm 3 mps 753 mmHg 65%
19:00 +11°C° 0.1 mm 3 mps 753 mmHg 69%
20:00 +10°C° 0.1 mm 3 mps 753 mmHg 73%
21:00 +10°C° 0.3 mm 3 mps 753 mmHg 77%
22:00 +10°C° 0.3 mm 3 mps 753 mmHg 81%
23:00 +10°C° 0.3 mm 4 mps 753 mmHg 85%

Day after tomorrow, 13 April, Tuesday

Time Temperature Precipitation Wind Pressure Humidity
00:00 +10°C° 0.1 mm 3 mps 753 mmHg 87%
01:00 +10°C° 0.1 mm 3 mps 753 mmHg 89%
02:00 +10°C° 0.1 mm 2 mps 753 mmHg 91%
03:00 +9°C° 0 mm 3 mps 753 mmHg 92%
04:00 +8°C° 0 mm 3 mps 753 mmHg 93%
05:00 +7°C° 0 mm 3 mps 753 mmHg 94%
06:00 +7°C° 0 mm 3 mps 753 mmHg 92%
07:00 +5°C° 0 mm 4 mps 754 mmHg 90%
08:00 +5°C° 0 mm 4 mps 754 mmHg 89%
09:00 +5°C° 0 mm 4 mps 754 mmHg 87%
10:00 +5°C° 0 mm 4 mps 755 mmHg 86%
11:00 +5°C° 0 mm 5 mps 755 mmHg 85%
12:00 +5°C° 0 mm 5 mps 755 mmHg 85%
13:00 +5°C° 0 mm 5 mps 755 mmHg 84%
14:00 +5°C° 0 mm 5 mps 755 mmHg 84%
15:00 +5°C° 0.3 mm 5 mps 755 mmHg 85%
16:00 +3°C° 0.3 mm 5 mps 755 mmHg 86%
17:00 +3°C° 0.3 mm 5 mps 755 mmHg 87%
18:00 +3°C° 0.6 mm 5 mps 755 mmHg 87%
19:00 +3°C° 0.6 mm 5 mps 755 mmHg 88%
20:00 +2°C° 0.6 mm 5 mps 755 mmHg 89%
21:00 +2°C° 0.8 mm 5 mps 755 mmHg 91%
22:00 +2°C° 0.8 mm 6 mps 755 mmHg 93%
23:00 +2°C° 0.8 mm 6 mps 755 mmHg 94%

14 April, Wednesday

Time Temperature Precipitation Wind Pressure Humidity
00:00 +2°C° 0.7 mm 6 mps 754 mmHg 95%
01:00 +2°C° 0.7 mm 6 mps 754 mmHg 95%
02:00 +2°C° 0.7 mm 6 mps 754 mmHg 95%
03:00 +1°C° 0.5 mm 6 mps 754 mmHg 95%
04:00 +1°C° 0.5 mm 6 mps 753 mmHg 94%
05:00 +1°C° 0.5 mm 6 mps 753 mmHg 94%
06:00 +1°C° 0.2 mm 6 mps 753 mmHg 93%
07:00 0°C° 0.2 mm 7 mps 753 mmHg 91%
08:00 0°C° 0.2 mm 7 mps 753 mmHg 90%
09:00 +2°C° 0 mm 7 mps 753 mmHg 87%
10:00 +2°C° 0 mm 7 mps 753 mmHg 84%
11:00 +2°C° 0 mm 7 mps 753 mmHg 82%
12:00 +3°C° 0 mm 7 mps 753 mmHg 83%
13:00 +3°C° 0 mm 7 mps 753 mmHg 84%
14:00 +3°C° 0 mm 7 mps 753 mmHg 85%
15:00 +2°C° 0.5 mm 7 mps 752 mmHg 87%
16:00 +2°C° 0.5 mm 7 mps 752 mmHg 89%
17:00 +2°C° 0.5 mm 7 mps 752 mmHg 91%
18:00 +2°C° 0.9 mm 7 mps 752 mmHg 92%
19:00 0°C° 0.9 mm 7 mps 752 mmHg 93%
20:00 0°C° 0.9 mm 7 mps 752 mmHg 93%
21:00 +2°C° 0.3 mm 7 mps 752 mmHg 93%
22:00 +2°C° 0.3 mm 7 mps 752 mmHg 93%
23:00 +2°C° 0.3 mm 6 mps 752 mmHg 93%

15 April, Thursday

Time Temperature Precipitation Wind Pressure Humidity
00:00 +2°C° 0 mm 6 mps 752 mmHg 93%
01:00 +2°C° 0 mm 6 mps 752 mmHg 93%
02:00 +2°C° 0 mm 6 mps 752 mmHg 94%
03:00 +2°C° 0 mm 6 mps 752 mmHg 94%
04:00 +2°C° 0 mm 6 mps 752 mmHg 94%
05:00 +2°C° 0 mm 5 mps 752 mmHg 94%
06:00 +2°C° 0 mm 5 mps 752 mmHg 94%
07:00 +2°C° 0 mm 5 mps 753 mmHg 93%
08:00 +3°C° 0 mm 5 mps 753 mmHg 93%
09:00 +3°C° 0.1 mm 5 mps 753 mmHg 92%
10:00 +3°C° 0.1 mm 5 mps 753 mmHg 91%
11:00 +4°C° 0.1 mm 6 mps 754 mmHg 90%
12:00 +4°C° 0 mm 6 mps 754 mmHg 89%
13:00 +4°C° 0 mm 6 mps 754 mmHg 88%
14:00 +3°C° 0 mm 6 mps 754 mmHg 88%
15:00 +3°C° 0 mm 6 mps 754 mmHg 88%
16:00 +2°C° 0 mm 6 mps 755 mmHg 88%
17:00 +2°C° 0 mm 6 mps 755 mmHg 89%
18:00 +2°C° 0 mm 6 mps 755 mmHg 87%
19:00 +2°C° 0 mm 6 mps 755 mmHg 86%
20:00 +2°C° 0 mm 6 mps 755 mmHg 84%
21:00 +2°C° 0.1 mm 6 mps 755 mmHg 82%
22:00 +2°C° 0.1 mm 6 mps 755 mmHg 80%
23:00 +3°C° 0.1 mm 6 mps 755 mmHg 77%

16 April, Friday

Time Temperature Precipitation Wind Pressure Humidity
00:00 +3°C° 0.1 mm 6 mps 755 mmHg 79%
01:00 +2°C° 0.1 mm 7 mps 755 mmHg 82%
02:00 +2°C° 0.1 mm 7 mps 755 mmHg 84%
03:00 +2°C° 0.1 mm 7 mps 755 mmHg 81%
04:00 +2°C° 0.1 mm 7 mps 756 mmHg 78%
05:00 +2°C° 0.1 mm 6 mps 756 mmHg 76%
06:00 +2°C° 0 mm 7 mps 756 mmHg 75%
07:00 +2°C° 0 mm 7 mps 757 mmHg 74%
08:00 +2°C° 0 mm 7 mps 757 mmHg 72%
09:00 +3°C° 0 mm 7 mps 758 mmHg 65%
10:00 +5°C° 0 mm 7 mps 758 mmHg 58%
11:00 +6°C° 0 mm 8 mps 758 mmHg 51%
12:00 +7°C° 0 mm 8 mps 758 mmHg 48%
13:00 +9°C° 0 mm 8 mps 759 mmHg 46%
14:00 +10°C° 0 mm 7 mps 759 mmHg 43%
15:00 +10°C° 0 mm 7 mps 759 mmHg 45%
16:00 +10°C° 0 mm 6 mps 759 mmHg 47%
17:00 +10°C° 0 mm 6 mps 760 mmHg 48%
18:00 +8°C° 0 mm 5 mps 760 mmHg 53%
19:00 +7°C° 0 mm 4 mps 761 mmHg 58%
20:00 +5°C° 0 mm 4 mps 761 mmHg 63%
21:00 +4°C° 0 mm 3 mps 761 mmHg 66%
22:00 +4°C° 0 mm 3 mps 762 mmHg 69%
23:00 +3°C° 0 mm 3 mps 762 mmHg 71%
Show more